Hourly Weather Prusow

Today, 7 July, Tuesday

Time Temperature Precipitation Wind Pressure Humidity
00:00 +9°C° 0.8 mm 2 mps 676 mmHg 93%
01:00 +8°C° 0.8 mm 2 mps 676 mmHg 96%
02:00 +8°C° 0.4 mm 2 mps 676 mmHg 96%
03:00 +8°C° 0.4 mm 2 mps 676 mmHg 96%
04:00 +9°C° 0.4 mm 1 mps 676 mmHg 96%
05:00 +8°C° 0.3 mm 2 mps 677 mmHg 95%
06:00 +8°C° 0.3 mm 2 mps 677 mmHg 94%
07:00 +8°C° 0.3 mm 2 mps 678 mmHg 93%
08:00 +9°C° 0.3 mm 2 mps 678 mmHg 85%
09:00 +10°C° 0.3 mm 3 mps 678 mmHg 78%
10:00 +12°C° 0.3 mm 3 mps 679 mmHg 71%
11:00 +12°C° 0.2 mm 3 mps 679 mmHg 66%
12:00 +13°C° 0.2 mm 4 mps 679 mmHg 60%
13:00 +14°C° 0.2 mm 4 mps 679 mmHg 55%
14:00 +14°C° 0 mm 4 mps 679 mmHg 55%
15:00 +14°C° 0 mm 4 mps 679 mmHg 54%
16:00 +14°C° 0 mm 3 mps 679 mmHg 54%
17:00 +13°C° 0 mm 3 mps 679 mmHg 61%
18:00 +12°C° 0 mm 2 mps 679 mmHg 68%
19:00 +11°C° 0 mm 1 mps 678 mmHg 75%
20:00 +10°C° 0 mm 1 mps 678 mmHg 79%
21:00 +9°C° 0 mm 1 mps 678 mmHg 83%
22:00 +7°C° 0 mm 1 mps 678 mmHg 86%
23:00 +7°C° 0 mm 1 mps 678 mmHg 87%

Tomorrow, 8 July, Wednesday

Time Temperature Precipitation Wind Pressure Humidity
00:00 +7°C° 0 mm 1 mps 678 mmHg 87%
01:00 +7°C° 0 mm 1 mps 678 mmHg 87%
02:00 +6°C° 0 mm 1 mps 678 mmHg 88%
03:00 +5°C° 0 mm 2 mps 678 mmHg 88%
04:00 +5°C° 0 mm 2 mps 678 mmHg 89%
05:00 +7°C° 0 mm 2 mps 678 mmHg 81%
06:00 +10°C° 0 mm 2 mps 679 mmHg 73%
07:00 +13°C° 0 mm 2 mps 679 mmHg 64%
08:00 +13°C° 0.1 mm 3 mps 679 mmHg 64%
09:00 +13°C° 0.1 mm 3 mps 680 mmHg 63%
10:00 +14°C° 0.1 mm 4 mps 680 mmHg 63%
11:00 +16°C° 0.1 mm 3 mps 680 mmHg 62%
12:00 +16°C° 0.1 mm 3 mps 680 mmHg 61%
13:00 +17°C° 0.1 mm 3 mps 680 mmHg 60%
14:00 +16°C° 0.2 mm 3 mps 680 mmHg 64%
15:00 +16°C° 0.2 mm 2 mps 679 mmHg 69%
16:00 +15°C° 0.2 mm 2 mps 679 mmHg 73%
17:00 +15°C° 0.1 mm 2 mps 679 mmHg 77%
18:00 +14°C° 0.1 mm 1 mps 679 mmHg 81%
19:00 +13°C° 0.1 mm 1 mps 678 mmHg 85%
20:00 +13°C° 0.6 mm 1 mps 678 mmHg 89%
21:00 +12°C° 0.6 mm 1 mps 678 mmHg 93%
22:00 +11°C° 0.6 mm 1 mps 679 mmHg 97%
23:00 +11°C° 0.5 mm 1 mps 679 mmHg 97%

Day after tomorrow, 9 July, Thursday

Time Temperature Precipitation Wind Pressure Humidity
00:00 +11°C° 0.5 mm 1 mps 679 mmHg 97%
01:00 +11°C° 0.5 mm 1 mps 679 mmHg 97%
02:00 +11°C° 0.1 mm 1 mps 679 mmHg 98%
03:00 +10°C° 0.1 mm 1 mps 679 mmHg 98%
04:00 +9°C° 0.1 mm 0 mps 679 mmHg 98%
05:00 +10°C° 0 mm 0 mps 680 mmHg 96%
06:00 +10°C° 0 mm 0 mps 680 mmHg 94%
07:00 +11°C° 0 mm 0 mps 681 mmHg 92%
08:00 +13°C° 0 mm 0 mps 681 mmHg 83%
09:00 +15°C° 0 mm 1 mps 682 mmHg 75%
10:00 +18°C° 0 mm 1 mps 682 mmHg 66%
11:00 +19°C° 0 mm 1 mps 682 mmHg 61%
12:00 +19°C° 0 mm 2 mps 682 mmHg 56%
13:00 +20°C° 0 mm 2 mps 682 mmHg 51%
14:00 +19°C° 0.1 mm 2 mps 682 mmHg 57%
15:00 +19°C° 0.1 mm 2 mps 682 mmHg 62%
16:00 +18°C° 0.1 mm 2 mps 681 mmHg 67%
17:00 +18°C° 0.1 mm 1 mps 681 mmHg 73%
18:00 +16°C° 0.1 mm 1 mps 681 mmHg 79%
19:00 +15°C° 0.1 mm 1 mps 680 mmHg 84%
20:00 +14°C° 0 mm 1 mps 680 mmHg 86%
21:00 +13°C° 0 mm 1 mps 680 mmHg 87%
22:00 +12°C° 0 mm 1 mps 680 mmHg 88%
23:00 +12°C° 0 mm 1 mps 680 mmHg 88%

10 July, Friday

Time Temperature Precipitation Wind Pressure Humidity
00:00 +12°C° 0 mm 1 mps 679 mmHg 89%
01:00 +12°C° 0 mm 1 mps 679 mmHg 89%
02:00 +12°C° 0 mm 1 mps 679 mmHg 89%
03:00 +12°C° 0 mm 2 mps 679 mmHg 90%
04:00 +12°C° 0 mm 2 mps 678 mmHg 90%
05:00 +14°C° 0 mm 2 mps 679 mmHg 84%
06:00 +16°C° 0 mm 2 mps 679 mmHg 79%
07:00 +18°C° 0 mm 2 mps 679 mmHg 73%
08:00 +20°C° 0 mm 3 mps 680 mmHg 66%
09:00 +21°C° 0 mm 4 mps 680 mmHg 59%
10:00 +23°C° 0 mm 5 mps 680 mmHg 52%
11:00 +23°C° 0 mm 5 mps 680 mmHg 50%
12:00 +25°C° 0 mm 5 mps 679 mmHg 48%
13:00 +26°C° 0 mm 5 mps 679 mmHg 46%
14:00 +25°C° 0 mm 5 mps 679 mmHg 48%
15:00 +25°C° 0 mm 5 mps 678 mmHg 50%
16:00 +25°C° 0 mm 5 mps 678 mmHg 52%
17:00 +22°C° 0 mm 4 mps 678 mmHg 60%
18:00 +21°C° 0 mm 3 mps 677 mmHg 68%
19:00 +19°C° 0 mm 3 mps 677 mmHg 76%
20:00 +17°C° 0.7 mm 2 mps 677 mmHg 83%
21:00 +15°C° 0.7 mm 2 mps 677 mmHg 90%
22:00 +14°C° 0.7 mm 1 mps 678 mmHg 97%
23:00 +14°C° 1.8 mm 1 mps 678 mmHg 97%

11 July, Saturday

Time Temperature Precipitation Wind Pressure Humidity
00:00 +13°C° 1.8 mm 1 mps 679 mmHg 98%
01:00 +13°C° 1.8 mm 1 mps 679 mmHg 98%
02:00 +12°C° 0.3 mm 1 mps 679 mmHg 97%
03:00 +11°C° 0.3 mm 1 mps 679 mmHg 97%
04:00 +10°C° 0.3 mm 2 mps 679 mmHg 96%
05:00 +9°C° 0.2 mm 2 mps 679 mmHg 95%
06:00 +10°C° 0.2 mm 1 mps 679 mmHg 94%
07:00 +10°C° 0.2 mm 1 mps 680 mmHg 93%
08:00 +10°C° 0.2 mm 1 mps 680 mmHg 93%
09:00 +10°C° 0.2 mm 1 mps 680 mmHg 93%
10:00 +10°C° 0.2 mm 1 mps 680 mmHg 92%
11:00 +10°C° 0.8 mm 1 mps 681 mmHg 92%
12:00 +10°C° 0.8 mm 1 mps 681 mmHg 91%
13:00 +10°C° 0.8 mm 1 mps 681 mmHg 90%
14:00 +11°C° 0.2 mm 1 mps 681 mmHg 82%
15:00 +12°C° 0.2 mm 1 mps 681 mmHg 73%
16:00 +13°C° 0.2 mm 1 mps 681 mmHg 65%
17:00 +12°C° 0 mm 1 mps 681 mmHg 68%
18:00 +11°C° 0 mm 0 mps 681 mmHg 72%
19:00 +10°C° 0 mm 0 mps 680 mmHg 75%
20:00 +9°C° 0 mm 0 mps 680 mmHg 77%
21:00 +8°C° 0 mm 0 mps 681 mmHg 78%
22:00 +7°C° 0 mm 0 mps 681 mmHg 80%
23:00 +8°C° 0 mm 1 mps 681 mmHg 81%

12 July, Sunday

Time Temperature Precipitation Wind Pressure Humidity
00:00 +7°C° 0 mm 1 mps 681 mmHg 81%
01:00 +7°C° 0 mm 1 mps 681 mmHg 82%
02:00 +7°C° 0 mm 1 mps 681 mmHg 85%
03:00 +6°C° 0 mm 1 mps 681 mmHg 87%
04:00 +6°C° 0 mm 1 mps 681 mmHg 90%
05:00 +8°C° 0 mm 1 mps 681 mmHg 82%
06:00 +10°C° 0 mm 1 mps 682 mmHg 75%
07:00 +13°C° 0 mm 1 mps 683 mmHg 67%
08:00 +14°C° 0.1 mm 1 mps 683 mmHg 64%
09:00 +14°C° 0.1 mm 2 mps 683 mmHg 61%
10:00 +15°C° 0.1 mm 2 mps 684 mmHg 58%
11:00 +16°C° 0.2 mm 2 mps 684 mmHg 56%
12:00 +16°C° 0.2 mm 2 mps 684 mmHg 55%
13:00 +17°C° 0.2 mm 3 mps 684 mmHg 53%
14:00 +16°C° 0.2 mm 3 mps 684 mmHg 57%
15:00 +16°C° 0.2 mm 3 mps 684 mmHg 61%
16:00 +14°C° 0.2 mm 3 mps 684 mmHg 65%
17:00 +14°C° 0.1 mm 2 mps 683 mmHg 72%
18:00 +13°C° 0.1 mm 2 mps 683 mmHg 79%
19:00 +11°C° 0.1 mm 1 mps 683 mmHg 86%
20:00 +10°C° 0 mm 1 mps 683 mmHg 86%
21:00 +9°C° 0 mm 1 mps 683 mmHg 87%
22:00 +8°C° 0 mm 1 mps 683 mmHg 88%
23:00 +7°C° 0 mm 1 mps 683 mmHg 89%
Show more